FW5225 Weather Reports


time (UTC)temp
C
wind
direction
speed
KPH
gust
KPH
rain 1hr
cm
rain 24hr
cm
rain mn
cm
humidity
%
barometer
mb
20260901091544 27 13 4.8 9.7 0.00 0.00 0.00 55 1010.9
20260901091044 27 25 4.8 9.7 0.00 0.00 0.00 55 1010.9
20260901090542 27 33 3.2 9.7 0.00 0.00 0.00 55 1010.9
20260901090042 27 64 4.8 9.7 0.00 0.00 0.00 55 1011.0
20260901085547 26 36 1.6 6.4 0.00 0.00 0.00 55 1011.0
20260901085043 26 38 3.2 4.8 0.00 0.00 0.00 55 1010.9
20260901084555 26 43 1.6 4.8 0.00 0.00 0.00 56 1011.0
20260901084042 26 37 0.0 3.2 0.00 0.00 0.00 57 1011.0
20260901083542 26 29 0.0 3.2 0.00 0.00 0.00 57 1011.0
20260901083042 26 12 0.0 1.6 0.00 0.00 0.00 56 1011.0
20260901082541 26 41 0.0 4.8 0.00 0.00 0.00 56 1011.0
20260901082040 26 40 1.6 4.8 0.00 0.00 0.00 57 1011.0
20260901081540 26 47 0.0 3.2 0.00 0.00 0.00 56 1011.1
20260901081040 26 50 0.0 1.6 0.00 0.00 0.00 57 1011.1
20260901080540 26 50 0.0 0.0 0.00 0.00 0.00 56 1011.1
20260901080047 26 50 0.0 0.0 0.00 0.00 0.00 57 1011.1
20260901075541 26 50 0.0 1.6 0.00 0.00 0.00 56 1011.0
20260901075043 26 50 0.0 0.0 0.00 0.00 0.00 57 1011.1
20260901074553 27 50 0.0 3.2 0.00 0.00 0.00 57 1011.1
20260901074040 27 50 0.0 3.2 0.00 0.00 0.00 56 1011.1
20260901073538 27 50 1.6 3.2 0.00 0.00 0.00 55 1011.0
20260901073037 27 36 0.0 3.2 0.00 0.00 0.00 55 1011.1
20260901072537 27 42 0.0 3.2 0.00 0.00 0.00 56 1011.1
20260901072036 27 5 0.0 3.2 0.00 0.00 0.00 55 1011.0
20260901071537 27 19 0.0 3.2 0.00 0.00 0.00 55 1011.0
20260901071034 27 40 0.0 3.2 0.00 0.00 0.00 55 1010.9
20260901070533 27 40 0.0 4.8 0.00 0.00 0.00 54 1010.9
20260901070036 27 34 0.0 4.8 0.00 0.00 0.00 54 1010.8
20260901065534 27 26 0.0 0.0 0.00 0.00 0.00 54 1010.9
20260901065033 27 34 0.0 3.2 0.00 0.00 0.00 53 1010.8
20260901064533 27 31 0.0 3.2 0.00 0.00 0.00 53 1010.9
20260901064032 27 44 1.6 3.2 0.00 0.00 0.00 54 1010.8
20260901063533 27 35 1.6 3.2 0.00 0.00 0.00 53 1010.8
20260901063032 27 38 0.0 4.8 0.00 0.00 0.00 54 1010.8
20260901062532 27 21 0.0 4.8 0.00 0.00 0.00 53 1010.8
20260901062031 27 18 1.6 6.4 0.00 0.00 0.00 53 1010.7
20260901061531 27 34 1.6 6.4 0.00 0.00 0.00 53 1010.7
20260901061032 27 46 0.0 3.2 0.00 0.00 0.00 53 1010.8
20260901060533 27 34 0.0 3.2 0.00 0.00 0.00 54 1010.8
20260901060031 27 26 0.0 3.2 0.00 0.00 0.00 54 1010.7
20260901055530 27 360 0.0 3.2 0.00 0.00 0.00 55 1010.8
20260901055031 27 37 0.0 6.4 0.00 0.00 0.00 53 1010.7
20260901054531 27 50 0.0 3.2 0.00 0.00 0.00 53 1010.7
20260901054031 27 40 0.0 3.2 0.00 0.00 0.00 55 1010.7
20260901053531 27 16 0.0 3.2 0.00 0.00 0.00 54 1010.7
20260901053035 27 63 0.0 4.8 0.00 0.00 0.00 53 1010.6
20260901052529 27 116 0.0 4.8 0.00 0.00 0.00 52 1010.5
20260901052030 27 115 0.0 4.8 0.00 0.00 0.00 52 1010.5
20260901051530 27 34 0.0 3.2 0.00 0.00 0.00 53 1010.5
20260901051033 28 45 0.0 1.6 0.00 0.00 0.00 52 1010.4
20260901050529 28 45 0.0 3.2 0.00 0.00 0.00 51 1010.4
20260901050029 28 45 0.0 3.2 0.00 0.00 0.00 49 1010.4
20260901045530 28 113 0.0 3.2 0.00 0.00 0.00 49 1010.4
20260901045028 28 85 0.0 3.2 0.00 0.00 0.00 49 1010.4
20260901044535 28 82 0.0 3.2 0.00 0.00 0.00 49 1010.3
20260901044028 28 94 0.0 4.8 0.00 0.00 0.00 49 1010.3
20260901043528 28 88 0.0 3.2 0.00 0.00 0.00 50 1010.3
20260901043028 28 100 0.0 3.2 0.00 0.00 0.00 49 1010.3
20260901042530 28 78 0.0 3.2 0.00 0.00 0.00 50 1010.3
20260901042028 28 57 0.0 3.2 0.00 0.00 0.00 52 1010.4
20260901041533 28 49 0.0 3.2 0.00 0.00 0.00 52 1010.3
20260901041027 28 65 0.0 3.2 0.00 0.00 0.00 51 1010.1
20260901040527 28 85 0.0 6.4 0.00 0.00 0.00 49 1010.1
20260901040027 28 104 1.6 4.8 0.00 0.00 0.00 49 1010.0
20260901035527 28 109 0.0 4.8 0.00 0.00 0.00 49 1010.1
20260901035029 28 58 0.0 4.8 0.00 0.00 0.00 50 1010.0
20260901034535 28 51 0.0 4.8 0.00 0.00 0.00 49 1009.8
20260901034027 28 117 0.0 4.8 0.00 0.00 0.00 49 1009.8
20260901033526 28 136 0.0 4.8 0.00 0.00 0.00 49 1009.8
20260901033029 28 138 0.0 3.2 0.00 0.00 0.00 49 1009.7
20260901032526 28 155 0.0 3.2 0.00 0.00 0.00 49 1009.6
20260901032026 28 140 0.0 3.2 0.00 0.00 0.00 49 1009.6
20260901031534 29 143 0.0 4.8 0.00 0.00 0.00 50 1009.6
20260901031025 29 134 1.6 4.8 0.00 0.00 0.00 50 1009.4
20260901030525 29 140 0.0 4.8 0.00 0.00 0.00 51 1009.4
20260901030025 29 153 0.0 4.8 0.00 0.00 0.00 51 1009.4
20260901025529 29 171 1.6 4.8 0.00 0.00 0.00 51 1009.3
20260901025027 29 150 0.0 4.8 0.00 0.00 0.00 51 1009.2
20260901024525 29 86 1.6 4.8 0.00 0.00 0.00 50 1009.1
20260901024026 29 141 0.0 4.8 0.00 0.00 0.00 50 1009.0
20260901023526 29 103 0.0 3.2 0.00 0.00 0.00 50 1009.1
20260901023024 29 201 0.0 3.2 0.00 0.00 0.00 50 1008.9
20260901022524 29 106 0.0 3.2 0.00 0.00 0.00 50 1008.8
20260901022027 29 130 0.0 3.2 0.00 0.00 0.00 50 1008.7
20260901021525 29 111 0.0 6.4 0.00 0.00 0.00 50 1008.8
20260901021024 29 119 1.6 6.4 0.00 0.00 0.00 49 1008.8
20260901020524 30 101 0.0 9.7 0.00 0.00 0.00 49 1008.9
20260901020024 30 130 1.6 9.7 0.00 0.00 0.00 49 1008.9
20260901015525 30 161 1.6 6.4 0.00 0.00 0.00 48 1009.1
20260901015022 30 146 1.6 8.0 0.00 0.00 0.00 48 1009.1
20260901014523 30 134 1.6 8.0 0.00 0.00 0.00 48 1009.1
20260901014023 30 186 1.6 9.7 0.00 0.00 0.00 47 1009.2
20260901013524 30 143 1.6 9.7 0.00 0.00 0.00 47 1009.1
20260901013029 30 161 1.6 8.0 0.00 0.00 0.00 46 1009.1
20260901012522 30 123 3.2 8.0 0.00 0.00 0.00 46 1009.0
20260901012021 30 128 0.0 6.4 0.00 0.00 0.00 46 1009.0
20260901011521 30 119 0.0 6.4 0.00 0.00 0.00 45 1008.9
20260901011021 30 124 1.6 9.7 0.00 0.00 0.00 45 1009.0
20260901010524 30 112 0.0 12.9 0.00 0.00 0.00 45 1009.0
20260901010027 30 88 1.6 12.9 0.00 0.00 0.00 45 1009.0
20260901005525 30 124 0.0 6.4 0.00 0.00 0.00 45 1009.0
20260901005021 31 139 0.0 8.0 0.00 0.00 0.00 45 1009.0
20260901004521 31 90 1.6 12.9 0.00 0.00 0.00 45 1009.0
20260901004020 31 70 1.6 12.9 0.00 0.00 0.00 44 1008.8
20260901003520 31 161 1.6 11.3 0.00 0.00 0.00 44 1008.8
20260901003030 31 69 3.2 9.7 0.00 0.00 0.00 44 1008.9
20260901002520 31 154 1.6 6.4 0.00 0.00 0.00 45 1008.9
20260901002020 31 88 3.2 12.9 0.00 0.00 0.00 45 1008.8
20260901001521 31 71 4.8 12.9 0.00 0.00 0.00 44 1008.8
20260901001019 31 111 3.2 9.7 0.00 0.00 0.00 44 1008.8
20260901000519 31 140 3.2 9.7 0.00 0.00 0.00 44 1008.9
20260901000019 31 146 1.6 9.7 0.00 0.00 0.00 44 1008.9
20260831235523 31 69 1.6 12.9 0.00 0.00 0.00 44 1009.0
20260831235019 31 78 4.8 12.9 0.00 0.00 0.00 43 1009.0
20260831234520 31 54 4.8 17.7 0.00 0.00 0.00 43 1009.0
20260831234020 32 163 1.6 17.7 0.00 0.00 0.00 43 1009.2
20260831233519 32 143 3.2 11.3 0.00 0.00 0.00 42 1009.3
20260831233018 32 167 0.0 11.3 0.00 0.00 0.00 43 1009.2
20260831232524 32 67 4.8 17.7 0.00 0.00 0.00 42 1009.2
20260831232018 32 78 6.4 17.7 0.00 0.00 0.00 41 1009.3
20260831231517 32 29 3.2 14.5 0.00 0.00 0.00 41 1009.4
20260831231018 31 36 1.6 17.7 0.00 0.00 0.00 43 1009.6
20260831230517 31 85 6.4 16.1 0.00 0.00 0.00 42 1009.6
20260831230017 31 50 8.0 16.1 0.00 0.00 0.00 42 1009.5
20260831225515 32 167 6.4 14.5 0.00 0.00 0.00 42 1009.5
20260831225014 31 110 1.6 16.1 0.00 0.00 0.00 45 1009.5
20260831224514 31 45 6.4 16.1 0.00 0.00 0.00 46 1009.7
20260831224013 31 115 4.8 19.3 0.00 0.00 0.00 45 1009.6
20260831223513 31 58 8.0 19.3 0.00 0.00 0.00 45 1009.8
20260831223013 31 115 4.8 14.5 0.00 0.00 0.00 45 1009.8
20260831222513 31 86 3.2 16.1 0.00 0.00 0.00 46 1009.7
20260831222011 31 49 6.4 16.1 0.00 0.00 0.00 46 1009.9
20260831221523 31 200 4.8 20.9 0.00 0.00 0.00 46 1010.0
20260831221015 31 73 9.7 20.9 0.00 0.00 0.00 45 1010.1
20260831220512 31 61 8.0 17.7 0.00 0.00 0.00 47 1010.3
20260831220011 31 90 8.0 20.9 0.00 0.00 0.00 46 1010.4
20260831215511 31 109 9.7 20.9 0.00 0.00 0.00 47 1010.4
20260831215011 31 208 6.4 14.5 0.00 0.00 0.00 50 1010.5
20260831214510 31 123 6.4 22.5 0.00 0.00 0.00 50 1010.6
20260831214011 31 116 8.0 22.5 0.00 0.00 0.00 50 1010.8
20260831213511 31 55 9.7 17.7 0.00 0.00 0.00 51 1010.9
20260831213012 31 127 4.8 14.5 0.00 0.00 0.00 50 1011.0
20260831212511 31 119 3.2 14.5 0.00 0.00 0.00 50 1011.1
20260831212010 30 92 6.4 20.9 0.00 0.00 0.00 50 1011.2
20260831211511 30 55 8.0 20.9 0.00 0.00 0.00 50 1011.3
20260831211009 31 60 3.2 16.1 0.00 0.00 0.00 50 1011.3
20260831210509 31 140 6.4 16.1 0.00 0.00 0.00 48 1011.4
20260831210009 31 188 3.2 16.1 0.00 0.00 0.00 48 1011.5
20260831205509 31 128 8.0 14.5 0.00 0.00 0.00 49 1011.6
20260831205009 31 134 4.8 14.5 0.00 0.00 0.00 49 1011.7
20260831204510 31 48 1.6 20.9 0.00 0.00 0.00 49 1011.8
20260831204009 31 136 8.0 20.9 0.00 0.00 0.00 49 1011.8
20260831203509 31 180 4.8 17.7 0.00 0.00 0.00 48 1011.8
20260831203009 31 111 3.2 14.5 0.00 0.00 0.00 49 1011.8
20260831202508 31 125 4.8 14.5 0.00 0.00 0.00 49 1011.8
20260831202006 30 172 1.6 14.5 0.00 0.00 0.00 50 1011.8
20260831201506 30 53 3.2 14.5 0.00 0.00 0.00 51 1011.8
20260831201006 30 125 4.8 14.5 0.00 0.00 0.00 50 1012.0
20260831200506 30 151 8.0 14.5 0.00 0.00 0.00 49 1012.0
20260831200005 30 69 8.0 17.7 0.00 0.00 0.00 49 1012.0
20260831195506 30 107 4.8 17.7 0.00 0.00 0.00 49 1012.1
20260831195006 30 100 3.2 16.1 0.00 0.00 0.00 48 1012.1
20260831194504 30 92 6.4 12.9 0.00 0.00 0.00 48 1012.1
20260831194006 30 96 4.8 19.3 0.00 0.00 0.00 48 1012.2
20260831193504 30 142 6.4 20.9 0.00 0.00 0.00 48 1012.2
20260831193004 30 113 3.2 11.3 0.00 0.00 0.00 49 1012.2
20260831192504 29 126 1.6 19.3 0.00 0.00 0.00 51 1012.3
20260831192004 29 114 4.8 16.1 0.00 0.00 0.00 53 1012.3
20260831191502 29 157 6.4 16.1 0.00 0.00 0.00 54 1012.4
20260831191002 28 90 4.8 16.1 0.00 0.00 0.00 55 1012.5
20260831190502 28 103 4.8 16.1 0.00 0.00 0.00 56 1012.6
20260831190004 28 103 4.8 16.1 0.00 0.00 0.00 55 1012.5
20260831185504 28 182 3.2 14.5 0.00 0.00 0.00 55 1012.5
20260831185002 28 212 3.2 11.3 0.00 0.00 0.00 55 1012.7
20260831184611 28 134 4.8 12.9 0.00 0.00 0.00 56 1012.7
20260831184100 28 126 1.6 16.1 0.00 0.00 0.00 58 1012.6
20260831183600 28 122 6.4 17.7 0.00 0.00 0.00 56 1012.7
20260831183101 28 119 3.2 12.9 0.00 0.00 0.00 54 1012.6
20260831182601 28 138 1.6 12.9 0.00 0.00 0.00 56 1012.7
20260831182100 28 87 1.6 12.9 0.00 0.00 0.00 56 1012.7
20260831181602 28 107 4.8 17.7 0.00 0.00 0.00 55 1012.7
20260831181059 28 82 4.8 9.7 0.00 0.00 0.00 57 1012.7
20260831180659 28 155 3.2 11.3 0.00 0.00 0.00 57 1012.8
20260831180059 28 143 4.8 12.9 0.00 0.00 0.00 56 1012.9
20260831175600 27 66 3.2 17.7 0.00 0.00 0.00 57 1013.0
20260831175058 27 75 8.0 17.7 0.00 0.00 0.00 58 1013.0
20260831174626 27 110 3.2 12.9 0.00 0.00 0.00 59 1013.0
20260831174057 27 61 1.6 16.1 0.00 0.00 0.00 60 1013.0
20260831173556 27 67 8.0 16.1 0.00 0.00 0.00 61 1013.1
20260831173055 27 70 6.4 14.5 0.00 0.00 0.00 61 1013.1
20260831172554 26 76 6.4 16.1 0.00 0.00 0.00 61 1013.1
20260831172053 26 97 9.7 14.5 0.00 0.00 0.00 61 1013.1
20260831171552 26 67 4.8 17.7 0.00 0.00 0.00 60 1013.1
20260831171052 26 87 8.0 20.9 0.00 0.00 0.00 60 1013.1
20260831170552 26 55 6.4 20.9 0.00 0.00 0.00 61 1013.1
20260831170056 26 65 6.4 16.1 0.00 0.00 0.00 60 1013.0
20260831165555 26 82 6.4 16.1 0.00 0.00 0.00 60 1013.0
20260831165054 26 76 4.8 17.7 0.00 0.00 0.00 61 1013.0
20260831164555 26 36 11.3 17.7 0.00 0.00 0.00 65 1013.0
20260831164050 26 82 9.7 17.7 0.00 0.00 0.00 65 1012.9
20260831163549 26 45 9.7 17.7 0.00 0.00 0.00 67 1013.0
20260831163048 26 62 6.4 16.1 0.00 0.00 0.00 67 1012.8
20260831162547 26 98 4.8 20.9 0.00 0.00 0.00 68 1012.7
20260831162045 26 88 11.3 20.9 0.00 0.00 0.00 68 1012.7
20260831161544 26 90 9.7 19.3 0.00 0.00 0.00 68 1012.8
20260831161043 26 42 4.8 19.3 0.00 0.00 0.00 68 1012.6
20260831160542 26 55 8.0 19.3 0.00 0.00 0.00 68 1012.4
20260831160043 26 59 6.4 17.7 0.00 0.00 0.00 68 1012.4
20260831155541 26 86 1.6 11.3 0.00 0.00 0.00 69 1012.4
20260831155041 26 50 0.0 9.7 0.00 0.00 0.00 69 1012.4
20260831154544 26 85 3.2 12.9 0.00 0.00 0.00 69 1012.2
20260831154039 26 78 1.6 12.9 0.00 0.00 0.00 69 1012.3
20260831153541 26 107 1.6 11.3 0.00 0.00 0.00 68 1012.2
20260831153050 26 86 3.2 17.7 0.00 0.00 0.00 68 1012.3
20260831152539 26 156 6.4 17.7 0.00 0.00 0.00 67 1012.3
20260831152037 26 165 4.8 19.3 0.00 0.00 0.00 67 1012.3
20260831151544 26 98 6.4 16.1 0.00 0.00 0.00 66 1012.2
20260831151037 26 88 8.0 16.1 0.00 0.00 0.00 65 1012.1
20260831150537 26 190 1.6 16.1 0.00 0.00 0.00 64 1012.1
20260831150033 26 123 6.4 16.1 0.00 0.00 0.00 64 1012.0
20260831145533 26 120 0.0 16.1 0.00 0.00 0.00 64 1011.9
20260831145032 26 136 3.2 16.1 0.00 0.00 0.00 63 1011.8
20260831144528 26 117 1.6 14.5 0.00 0.00 0.00 63 1011.5
20260831144028 26 135 1.6 14.5 0.00 0.00 0.00 63 1011.4
20260831143529 26 114 1.6 16.1 0.00 0.00 0.00 63 1011.3
20260831143024 27 86 1.6 14.5 0.00 0.00 0.00 62 1011.3
20260831142524 27 136 4.8 16.1 0.00 0.00 0.00 61 1011.1
20260831142024 27 150 6.4 16.1 0.00 0.00 0.00 59 1011.0
20260831141522 27 80 3.2 11.3 0.00 0.00 0.00 59 1010.8
20260831141020 27 42 1.6 8.0 0.00 0.00 0.00 59 1010.7
20260831140522 27 56 0.0 6.4 0.00 0.00 0.00 59 1010.5
20260831140017 27 75 1.6 8.0 0.00 0.00 0.00 59 1010.4
20260831135516 26 47 1.6 8.0 0.00 0.00 0.00 59 1010.2
20260831135015 26 57 1.6 4.8 0.00 0.00 0.00 58 1010.0
20260831134518 26 72 0.0 4.8 0.00 0.00 0.00 58 1009.9
20260831134013 26 51 0.0 3.2 0.00 0.00 0.00 58 1009.8
20260831133512 26 79 0.0 1.6 0.00 0.00 0.00 57 1009.7
20260831133014 26 79 0.0 3.2 0.00 0.00 0.00 57 1009.6
20260831132511 27 34 0.0 0.0 0.00 0.00 0.00 58 1009.4
20260831132010 27 34 0.0 3.2 0.00 0.00 0.00 58 1009.4
20260831131509 27 33 0.0 3.2 0.00 0.00 0.00 57 1009.3
20260831131011 27 147 0.0 3.2 0.00 0.00 0.00 56 1009.3
20260831130508 27 105 0.0 3.2 0.00 0.00 0.00 56 1009.3
20260831130009 27 63 0.0 0.0 0.00 0.00 0.00 58 1009.1
20260831125507 27 115 0.0 1.6 0.00 0.00 0.00 56 1009.1
20260831125007 27 115 0.0 3.2 0.00 0.00 0.00 56 1009.2
20260831124507 27 95 0.0 1.6 0.00 0.00 0.00 55 1009.1
20260831124005 27 78 0.0 3.2 0.00 0.00 0.00 55 1009.0
20260831123508 27 106 0.0 3.2 0.00 0.00 0.00 55 1009.0
20260831123007 27 143 0.0 3.2 0.00 0.00 0.00 54 1009.0
20260831122505 27 146 0.0 3.2 0.00 0.00 0.00 53 1008.9
20260831122005 27 175 0.0 4.8 0.00 0.00 0.00 52 1008.9
20260831121505 27 57 0.0 4.8 0.00 0.00 0.00 52 1009.0
20260831121003 27 56 0.0 4.8 0.00 0.00 0.00 51 1008.8
20260831120503 27 130 0.0 3.2 0.00 0.00 0.00 50 1008.9
20260831120002 27 51 0.0 4.8 0.00 0.00 0.00 51 1008.7
20260831115501 27 355 0.0 8.0 0.00 0.00 0.00 51 1008.5
20260831115000 27 355 1.6 8.0 0.00 0.00 0.00 51 1008.4
20260831114603 27 5 0.0 9.7 0.00 0.00 0.00 51 1008.4
20260831114100 27 57 4.8 9.7 0.00 0.00 0.00 50 1008.4
20260831113600 27 28 1.6 11.3 0.00 0.00 0.00 50 1008.4
20260831113108 27 15 1.6 11.3 0.00 0.00 0.00 51 1008.3
20260831113001 27 55 1.6 11.3 0.00 0.00 0.00 51 1008.3
20260831112559 27 338 3.2 11.3 0.00 0.00 0.00 51 1008.3
20260831112058 27 31 4.8 11.3 0.00 0.00 0.00 51 1008.1
20260831111557 26 42 1.6 11.3 0.00 0.00 0.00 52 1008.0
20260831111058 26 40 3.2 9.7 0.00 0.00 0.00 53 1008.0
20260831110557 26 46 4.8 9.7 0.00 0.00 0.00 54 1008.0
20260831110058 26 27 1.6 9.7 0.00 0.00 0.00 54 1007.9
20260831105559 26 348 3.2 11.3 0.00 0.00 0.00 55 1007.9
20260831105127 26 52 6.4 11.3 0.00 0.00 0.00 55 1007.8
20260831104600 26 5 4.8 9.7 0.00 0.00 0.00 55 1007.8
20260831104057 26 42 3.2 14.5 0.00 0.00 0.00 56 1007.9
20260831103557 26 42 4.8 14.5 0.00 0.00 0.00 57 1007.8
20260831103100 26 344 3.2 9.7 0.00 0.00 0.00 57 1007.7
20260831102556 26 19 3.2 9.7 0.00 0.00 0.00 57 1007.8
20260831102056 26 36 1.6 9.7 0.00 0.00 0.00 60 1007.8
20260831101555 26 5 4.8 9.7 0.00 0.00 0.00 60 1007.8
20260831101055 26 41 6.4 11.3 0.00 0.00 0.00 59 1007.8
20260831100554 26 49 6.4 11.3 0.00 0.00 0.00 59 1008.0
20260831100054 26 19 4.8 9.7 0.00 0.00 0.00 59 1008.1
20260831095553 26 19 3.2 9.7 0.00 0.00 0.00 59 1008.1
20260831095052 26 64 4.8 11.3 0.00 0.00 0.00 59 1008.1
20260831094602 26 57 3.2 11.3 0.00 0.00 0.00 59 1008.0
20260831094051 26 76 4.8 11.3 0.00 0.00 0.00 58 1008.1
20260831093550 27 92 1.6 9.7 0.00 0.00 0.00 57 1008.0
20260831093136 27 87 0.0 9.7 0.00 0.00 0.00 56 1008.0
20260831092548 27 105 3.2 11.3 0.00 0.00 0.00 55 1007.9
20260831092047 27 58 4.8 11.3 0.00 0.00 0.00 55 1007.8